Time,TemperatureF,DewpointF,PressureIn,WindDirection,WindDirectionDegrees,WindSpeedMPH,WindSpeedGustMPH,Humidity,HourlyPrecipIn,Conditions,Clouds,dailyrainin,SoftwareType,DateUTC
2013-03-23 09:03:00,66.0,65.0,29.91,SSE,148,0.0,0.0,97,-99.99,,,-99.99,,2013-03-23 13:03:00,
2013-03-23 09:12:00,66.0,65.0,29.91,SSE,148,0.0,0.0,97,-99.99,,,-99.99,,2013-03-23 13:12:00,
2013-03-23 09:23:00,66.0,65.0,29.91,SSE,148,0.0,0.0,97,-99.99,,,-99.99,,2013-03-23 13:23:00,
2013-03-23 09:33:00,66.0,65.0,29.91,SSE,148,0.0,0.0,97,-99.99,,,-99.99,,2013-03-23 13:33:00,
2013-03-23 09:43:00,66.0,65.0,29.91,SSE,148,0.0,0.0,97,-99.99,,,-99.99,,2013-03-23 13:43:00,
2013-03-23 10:03:00,70.0,69.0,29.89,South,178,0.0,0.0,98,-99.99,,,-99.99,,2013-03-23 14:03:00,
2013-03-23 10:12:00,70.0,69.0,29.89,South,178,0.0,0.0,98,-99.99,,,-99.99,,2013-03-23 14:12:00,
2013-03-23 10:23:00,71.0,70.0,29.89,SSW,198,0.0,10.0,98,-99.99,,,-99.99,,2013-03-23 14:23:00,
2013-03-23 10:32:00,72.0,71.0,29.88,South,188,3.0,13.0,98,-99.99,,,-99.99,,2013-03-23 14:32:00,
2013-03-23 10:43:00,72.0,71.0,29.88,South,188,3.0,13.0,98,-99.99,,,-99.99,,2013-03-23 14:43:00,
2013-03-23 10:53:00,73.0,72.0,29.88,South,188,2.0,10.0,97,-99.99,,,-99.99,,2013-03-23 14:53:00,
2013-03-23 11:03:00,75.0,73.0,29.88,SW,230,1.0,10.0,94,0.00,,,-99.99,,2013-03-23 15:03:00,
2013-03-23 11:12:00,75.0,73.0,29.88,SW,230,1.0,10.0,94,0.00,,,-99.99,,2013-03-23 15:12:00,
2013-03-23 11:22:00,77.0,74.0,29.88,SSW,210,1.0,10.0,90,0.00,,,-99.99,,2013-03-23 15:22:00,
2013-03-23 11:33:00,78.0,73.0,29.88,SSW,195,1.0,12.0,86,0.00,,,-99.99,,2013-03-23 15:33:00,
2013-03-23 11:43:00,78.0,73.0,29.88,SSW,195,1.0,12.0,86,0.00,,,-99.99,,2013-03-23 15:43:00,
2013-03-23 11:53:00,79.0,74.0,29.88,SW,214,2.0,10.0,84,0.00,,,-99.99,,2013-03-23 15:53:00,
2013-03-23 12:03:00,80.0,74.0,29.88,SW,224,0.0,12.0,82,0.00,,,-99.99,,2013-03-23 16:03:00,
2013-03-23 12:13:00,80.0,74.0,29.88,SW,224,0.0,12.0,82,0.00,,,-99.99,,2013-03-23 16:13:00,
2013-03-23 12:23:00,81.0,74.0,29.88,SW,220,2.0,11.0,80,0.00,,,-99.99,,2013-03-23 16:23:00,
2013-03-23 12:33:00,82.0,74.0,29.87,SW,221,3.0,10.0,77,0.00,,,-99.99,,2013-03-23 16:33:00,
2013-03-23 12:43:00,82.0,74.0,29.87,SW,221,3.0,10.0,77,0.00,,,-99.99,,2013-03-23 16:43:00,
2013-03-23 12:53:00,82.0,74.0,29.87,WSW,244,2.0,10.0,78,0.00,,,-99.99,,2013-03-23 16:53:00,
2013-03-23 13:02:00,82.0,74.0,29.86,SW,234,0.0,16.0,77,0.00,,,-99.99,,2013-03-23 17:02:00,
2013-03-23 13:12:00,83.0,75.0,29.85,WSW,249,1.0,12.0,76,0.00,,,-99.99,,2013-03-23 17:12:00,
2013-03-23 13:22:00,83.0,75.0,29.85,WSW,249,1.0,12.0,76,0.00,,,-99.99,,2013-03-23 17:22:00,
2013-03-23 13:33:00,84.0,74.0,29.85,WSW,239,2.0,11.0,72,0.00,,,-99.99,,2013-03-23 17:33:00,
2013-03-23 13:42:00,84.0,74.0,29.85,WSW,239,2.0,11.0,72,0.00,,,-99.99,,2013-03-23 17:42:00,
2013-03-23 13:53:00,85.0,74.0,29.85,WSW,237,1.0,10.0,70,0.00,,,-99.99,,2013-03-23 17:53:00,
2013-03-23 14:03:00,86.0,74.0,29.84,SW,219,0.0,13.0,67,0.00,,,-99.99,,2013-03-23 18:03:00,
2013-03-23 14:12:00,86.0,74.0,29.84,SW,219,0.0,13.0,67,0.00,,,-99.99,,2013-03-23 18:12:00,
2013-03-23 14:22:00,87.0,74.0,29.83,WSW,249,2.0,12.0,66,0.00,,,-99.99,,2013-03-23 18:22:00,
2013-03-23 14:32:00,87.0,73.0,29.82,SW,221,2.0,11.0,64,0.00,,,-99.99,,2013-03-23 18:32:00,
2013-03-23 14:42:00,87.0,73.0,29.82,SW,221,2.0,11.0,64,0.00,,,-99.99,,2013-03-23 18:42:00,
2013-03-23 14:53:00,87.0,73.0,29.82,SW,225,0.0,13.0,64,0.00,,,-99.99,,2013-03-23 18:53:00,
2013-03-23 15:03:00,87.0,74.0,29.81,SSW,209,3.0,13.0,65,0.00,,,-99.99,,2013-03-23 19:03:00,
2013-03-23 15:13:00,87.0,74.0,29.81,SSW,209,3.0,13.0,65,0.00,,,-99.99,,2013-03-23 19:13:00,
2013-03-23 15:23:00,87.0,72.0,29.80,SW,215,3.0,13.0,61,0.00,,,-99.99,,2013-03-23 19:23:00,
2013-03-23 15:32:00,88.0,72.0,29.79,West,267,4.0,18.0,59,0.00,,,-99.99,,2013-03-23 19:32:00,
2013-03-23 15:42:00,88.0,72.0,29.79,West,267,4.0,18.0,59,0.00,,,-99.99,,2013-03-23 19:42:00,
2013-03-23 15:53:00,88.0,71.0,29.79,SW,227,2.0,14.0,58,0.00,,,-99.99,,2013-03-23 19:53:00,
2013-03-23 16:03:00,88.0,70.0,29.79,WSW,242,2.0,13.0,56,0.00,,,-99.99,,2013-03-23 20:03:00,
2013-03-23 16:13:00,88.0,70.0,29.79,WSW,242,2.0,13.0,56,0.00,,,-99.99,,2013-03-23 20:13:00,
2013-03-23 16:22:00,88.0,70.0,29.78,SSW,212,2.0,16.0,56,0.00,,,-99.99,,2013-03-23 20:22:00,
2013-03-23 16:32:00,87.0,71.0,29.78,WSW,251,1.0,17.0,59,0.00,,,-99.99,,2013-03-23 20:32:00,
2013-03-23 16:42:00,87.0,71.0,29.78,WSW,251,1.0,17.0,59,0.00,,,-99.99,,2013-03-23 20:42:00,
2013-03-23 16:53:00,87.0,71.0,29.78,WSW,251,1.0,17.0,59,0.00,,,-99.99,,2013-03-23 20:53:00,
2013-03-23 17:02:00,87.0,71.0,29.78,WSW,251,1.0,17.0,59,0.00,,,-99.99,,2013-03-23 21:02:00,
2013-03-23 17:12:00,87.0,71.0,29.78,WSW,251,1.0,17.0,59,0.00,,,-99.99,,2013-03-23 21:12:00,
2013-03-23 19:33:00,80.0,69.0,29.79,WSW,247,1.0,11.0,69,0.00,,,-99.99,,2013-03-23 23:33:00,
2013-03-23 19:43:00,80.0,69.0,29.79,WSW,247,1.0,11.0,69,0.00,,,-99.99,,2013-03-23 23:43:00,
2013-03-23 19:53:00,80.0,70.0,29.79,WSW,238,0.0,1.0,71,0.00,,,-99.99,,2013-03-23 23:53:00,
2013-03-23 20:02:00,79.0,70.0,29.80,WSW,243,0.0,0.0,73,0.00,,,-99.99,,2013-03-24 00:02:00,
2013-03-23 20:13:00,79.0,70.0,29.80,WSW,243,0.0,0.0,73,0.00,,,-99.99,,2013-03-24 00:13:00,
2013-03-23 20:22:00,78.0,69.0,29.80,WSW,243,0.0,0.0,74,0.00,,,-99.99,,2013-03-24 00:22:00,
2013-03-23 20:32:00,77.0,68.0,29.80,WSW,240,0.0,0.0,75,0.00,,,-99.99,,2013-03-24 00:32:00,
2013-03-23 20:42:00,77.0,68.0,29.80,WSW,240,0.0,0.0,75,0.00,,,-99.99,,2013-03-24 00:42:00,
2013-03-23 20:53:00,77.0,69.0,29.81,WSW,252,0.0,1.0,76,0.00,,,-99.99,,2013-03-24 00:53:00,
2013-03-23 21:02:00,77.0,69.0,29.81,WSW,252,0.0,1.0,76,0.00,,,-99.99,,2013-03-24 01:02:00,
2013-03-23 21:12:00,77.0,69.0,29.81,WSW,252,0.0,1.0,76,0.00,,,-99.99,,2013-03-24 01:12:00,
2013-03-23 21:22:00,77.0,69.0,29.81,WSW,252,0.0,1.0,76,0.00,,,-99.99,,2013-03-24 01:22:00,